Regional Weather Roundup
Issued by NWS Cleveland, OH

Home | Current Version | Previous Version | Graphics & Text | Print | Product List | Glossary On
Versions: 1 2 3 4 5 6 7 8 9 10 11 12 13 14 15 16 17 18 19 20 21 22 23 24 25 26 27 28 29 30 31 32 33 34 35 36 37 38 39 40 41 42 43 44 45 46 47 48 49 50
000
ASUS41 KCLE 250100
RWRCLE
OHIO REGIONAL WEATHER ROUNDUP
NATIONAL WEATHER SERVICE WILMINGTON, OH
900 PM EDT WED AUG 24 2016

NOTE: "FAIR" INDICATES FEW OR NO CLOUDS BELOW 12,000 FEET WITH NO
SIGNIFICANT WEATHER AND/OR OBSTRUCTIONS TO VISIBILITY.

OHZ001>008-015>018-024>027-034-035-043-044-250200-
   NORTHWEST OHIO

CITY           SKY/WX    TMP DP  RH WIND       PRES   REMARKS
DEFIANCE       TSTM      73  70  90 S7G16     29.98S VSB 3/4
FINDLAY        CLOUDY    79  71  76 S13       29.99S
TOLEDO EXPRESS LGT RAIN  75  75 100 SW5       29.98S
TOLEDO EXEC    CLOUDY    78  74  87 S13       29.98R
LIMA           FAIR      77  74  90 S9        30.00F
$$

OHZ009>014-019>023-028>033-038-089-250200-
   NORTHEAST OHIO

CITY           SKY/WX    TMP DP  RH WIND       PRES   REMARKS
CLE-HOPKINS    MOCLDY    82  66  58 S16G23    30.05S
CLE-LAKEFRONT  MOCLDY    83  66  56 S15G29    30.02S
CUY CO. ARPT   MOCLDY    82  70  65 S14       30.05S
LORAIN-ELYRIA  FAIR      79  68  69 S13       30.04S
ASHTABULA      FAIR      77  67  71 S7        30.06F
AKRON-CANTON   MOCLDY    79  66  64 S12       30.09S
WOOSTER        NOT AVBL
MANSFIELD      FAIR      77  69  76 S15       30.07S
YOUNGSTOWN     CLOUDY    78  64  61 S7        30.09S
$$

OHZ042-051>053-060>062-070>072-077>081-250200-
  SOUTHWEST OHIO

CITY           SKY/WX    TMP DP  RH WIND       PRES   REMARKS
CINC-COVINGTON CLOUDY    82  73  74 S10       30.07S
CINC-LUNKEN    FAIR      81  73  76 S9        30.05F
HAMILTON       FAIR      80  72  76 VRB5      30.05S
DAYTON         NOT AVBL
WRIGHT-PAT AFB NOT AVBL
DAYTON GENERAL FAIR      77  72  84 S7        30.05S
WILMINGTON     LGT RAIN  77  73  87 S10       30.06S
$$

OHZ036-037-039>041-045>050-054>059-063>069-073>076-082>088-250200-
  CENTRAL AND SOUTHEAST OHIO

CITY           SKY/WX    TMP DP  RH WIND       PRES   REMARKS
COLUMBUS       CLOUDY    78  70  76 S10       30.06F
OSU AIRPORT    FAIR      78  72  81 S10       30.06F
BOLTON FIELD   NOT AVBL
RICKENBACK AFB NOT AVBL
NEWARK         NOT AVBL
MARION         FAIR      77  70  79 S10       30.05S
LANCASTER      FAIR      78  71  79 S7        30.08F
ZANESVILLE     MOCLDY    78  69  73 S7        30.10F
NEW PHILLY     FAIR      80  67  64 S3        30.10S
$$




USA.gov is the U.S. government's official web portal to all federal, state and local government web resources and services.